^^
Garrymore Weather Station Historical Data
 
Daily Summary for January 28, 2020 Units:  Metric    English   Both
Daily Weekly Monthly Yearly Custom
  Current: High: Low: Average:
Temperature: 3 °C 5 °C 0 °C 2.5 °C
Dew Point: 0 °C 1 °C -5 °C -0.9 °C
Humidity: 81% 86% 51% 79%
Wind Speed: 10km/h 19km/h 2km/h 10.6km/h
Wind Gust: 18km/h 39km/h - -
WindWSW - - WSW
Pressure: 1004.3 hPa 1004.4 hPa hPa -
Precipitation: 2.69 mm      
Historical Graphs
 
 
Tabular Data for January 28, 2020
Time Temperature Dew Point Pressure Wind Wind Speed Wind Gust Humidity Rainfall Rate (Hourly) solar
00:00 1 °C -2 °C 992.48 hPa W 10 km/h 24 km/h 82% 0 mm 0 W/m2
00:05 1 °C -2 °C 992.42 hPa W 8 km/h 21 km/h 82% 0 mm 0 W/m2
00:10 1 °C -2 °C 992.38 hPa NW 11 km/h 24 km/h 82% 0 mm 0 W/m2
00:15 1 °C -2 °C 992.52 hPa NW 13 km/h 24 km/h 82% 0 mm 0 W/m2
00:20 1 °C -2 °C 992.31 hPa WNW 10 km/h 21 km/h 82% 0 mm 0 W/m2
00:25 1 °C -2 °C 992.31 hPa WSW 10 km/h 21 km/h 82% 0 mm 0 W/m2
00:30 1 °C -2 °C 992.48 hPa WSW 8 km/h 14 km/h 82% 0 mm 0 W/m2
00:35 1 °C -2 °C 992.58 hPa WSW 10 km/h 14 km/h 82% 0 mm 0 W/m2
00:40 1 °C -2 °C 992.69 hPa W 5 km/h 13 km/h 81% 0 mm 0 W/m2
00:45 0 °C -3 °C 992.69 hPa WSW 8 km/h 13 km/h 81% 0 mm 0 W/m2
00:50 0 °C -3 °C 992.72 hPa SW 5 km/h 13 km/h 81% 0 mm 0 W/m2
00:55 0 °C -3 °C 992.89 hPa WSW 11 km/h 16 km/h 81% 0 mm 0 W/m2
01:00 0 °C -3 °C 992.89 hPa SW 10 km/h 18 km/h 81% 0 mm 0 W/m2
01:05 0 °C -3 °C 992.89 hPa WSW 11 km/h 19 km/h 81% 0 mm 0 W/m2
01:10 0 °C -3 °C 992.92 hPa W 10 km/h 19 km/h 81% 0 mm 0 W/m2
01:15 0 °C -3 °C 992.99 hPa W 10 km/h 18 km/h 81% 0 mm 0 W/m2
01:20 0 °C -3 °C 992.79 hPa W 5 km/h 16 km/h 81% 0 mm 0 W/m2
01:25 0 °C -3 °C 992.99 hPa NW 5 km/h 13 km/h 81% 0 mm 0 W/m2
01:30 0 °C -3 °C 992.99 hPa NW 2 km/h 14 km/h 80% 0 mm 0 W/m2
01:35 0 °C -3 °C 992.99 hPa W 8 km/h 14 km/h 80% 0 mm 0 W/m2
01:40 0 °C -3 °C 993.09 hPa WNW 11 km/h 21 km/h 80% 0 mm 0 W/m2
01:45 0 °C -3 °C 993.19 hPa NW 10 km/h 23 km/h 80% 0 mm 0 W/m2
01:50 0 °C -3 °C 993.19 hPa NW 13 km/h 21 km/h 80% 0 mm 0 W/m2
01:55 1 °C -3 °C 993.4 hPa W 10 km/h 24 km/h 80% 0 mm 0 W/m2
02:00 1 °C -3 °C 993.3 hPa NW 13 km/h 21 km/h 80% 0 mm 0 W/m2
02:05 1 °C -3 °C 993.4 hPa NW 11 km/h 19 km/h 80% 0 mm 0 W/m2
02:10 1 °C -3 °C 993.5 hPa WSW 10 km/h 21 km/h 79% 0 mm 0 W/m2
02:15 1 °C -3 °C 993.6 hPa WSW 14 km/h 27 km/h 79% 0 mm 0 W/m2
02:20 1 °C -2 °C 993.5 hPa W 13 km/h 27 km/h 79% 0 mm 0 W/m2
02:25 1 °C -2 °C 993.5 hPa WSW 11 km/h 27 km/h 79% 0 mm 0 W/m2
02:30 1 °C -2 °C 993.7 hPa W 13 km/h 24 km/h 79% 0 mm 0 W/m2
02:35 1 °C -2 °C 994.07 hPa NW 11 km/h 26 km/h 79% 0 mm 0 W/m2
02:40 1 °C -2 °C 993.7 hPa W 14 km/h 24 km/h 79% 0 mm 0 W/m2
02:45 1 °C -2 °C 993.7 hPa W 5 km/h 24 km/h 79% 0 mm 0 W/m2
02:50 1 °C -3 °C 993.7 hPa WNW 10 km/h 19 km/h 78% 0 mm 0 W/m2
02:55 1 °C -3 °C 993.87 hPa W 8 km/h 21 km/h 78% 0 mm 0 W/m2
03:00 1 °C -3 °C 993.91 hPa W 8 km/h 14 km/h 78% 0 mm 0 W/m2
03:05 1 °C -3 °C 994.01 hPa SW 10 km/h 14 km/h 78% 0 mm 0 W/m2
03:10 1 °C -3 °C 994.21 hPa SSW 10 km/h 24 km/h 78% 0 mm 0 W/m2
03:15 1 °C -3 °C 994.21 hPa WSW 11 km/h 21 km/h 78% 0 mm 0 W/m2
03:20 1 °C -3 °C 994.41 hPa WSW 13 km/h 18 km/h 78% 0 mm 0 W/m2
03:25 1 °C -3 °C 994.28 hPa SW 5 km/h 16 km/h 78% 0 mm 0 W/m2
03:30 1 °C -2 °C 994.31 hPa WSW 5 km/h 14 km/h 79% 0 mm 0 W/m2
03:35 1 °C -2 °C 994.62 hPa NW 2 km/h 13 km/h 78% 0 mm 0 W/m2
03:40 1 °C -2 °C 994.48 hPa WNW 14 km/h 27 km/h 78% 0 mm 0 W/m2
03:45 1 °C -2 °C 994.51 hPa WNW 10 km/h 29 km/h 78% 0.3 mm 0 W/m2
03:50 1 °C -2 °C 994.31 hPa W 5 km/h 16 km/h 78% 0 mm 0 W/m2
03:55 1 °C -2 °C 994.21 hPa SW 8 km/h 14 km/h 79% 0.3 mm 0 W/m2
04:00 1 °C -2 °C 994.11 hPa W 5 km/h 16 km/h 79% 0 mm 0 W/m2
04:05 1 °C -2 °C 994.21 hPa SW 8 km/h 13 km/h 80% 0 mm 0 W/m2
04:10 1 °C -2 °C 994.11 hPa SW 8 km/h 21 km/h 80% 0 mm 0 W/m2
04:15 1 °C -2 °C 993.8 hPa WSW 11 km/h 18 km/h 79% 0 mm 0 W/m2
04:20 1 °C -2 °C 994.01 hPa SW 8 km/h 19 km/h 80% 0 mm 0 W/m2
04:25 1 °C -2 °C 994.11 hPa WSW 5 km/h 19 km/h 80% 0 mm 0 W/m2
04:30 1 °C -2 °C 994.11 hPa WSW 10 km/h 13 km/h 80% 0 mm 0 W/m2
04:35 1 °C -2 °C 994.01 hPa W 10 km/h 18 km/h 80% 0 mm 0 W/m2
04:40 1 °C -2 °C 994.11 hPa WSW 10 km/h 19 km/h 80% 0 mm 0 W/m2
04:45 1 °C -2 °C 994.28 hPa WSW 11 km/h 24 km/h 80% 0 mm 0 W/m2
04:50 2 °C -2 °C 994.28 hPa SW 10 km/h 29 km/h 80% 0 mm 0 W/m2
04:55 2 °C -1 °C 994.18 hPa SW 8 km/h 16 km/h 80% 0 mm 0 W/m2
05:00 2 °C -2 °C 994.31 hPa SW 10 km/h 19 km/h 79% 0 mm 0 W/m2
05:05 2 °C -2 °C 994.31 hPa NW 10 km/h 13 km/h 79% 0 mm 0 W/m2
05:10 2 °C -1 °C 994.38 hPa N 11 km/h 16 km/h 79% 0 mm 0 W/m2
05:15 2 °C -1 °C 994.38 hPa WSW 16 km/h 24 km/h 79% 0.3 mm 0 W/m2
05:20 2 °C -1 °C 994.48 hPa SW 10 km/h 24 km/h 79% 0 mm 0 W/m2
05:25 2 °C -1 °C 994.58 hPa SSW 13 km/h 23 km/h 79% 0 mm 0 W/m2
05:30 2 °C -1 °C 994.62 hPa SSW 14 km/h 24 km/h 79% 0 mm 0 W/m2
05:35 2 °C -1 °C 994.51 hPa SSW 13 km/h 24 km/h 79% 0.3 mm 0 W/m2
05:40 2 °C -2 °C 994.21 hPa W 19 km/h 27 km/h 79% 0 mm 0 W/m2
05:45 2 °C -2 °C 994.38 hPa W 11 km/h 24 km/h 79% 0 mm 0 W/m2
05:50 2 °C -2 °C 994.28 hPa SW 10 km/h 18 km/h 79% 0 mm 0 W/m2
05:55 1 °C -2 °C 994.58 hPa SW 13 km/h 18 km/h 79% 0 mm 0 W/m2
06:00 2 °C -2 °C 994.48 hPa SSW 10 km/h 16 km/h 79% 0 mm 0 W/m2
06:05 2 °C -2 °C 994.51 hPa SSW 10 km/h 18 km/h 79% 0 mm 0 W/m2
06:10 2 °C -2 °C 994.72 hPa SSW 10 km/h 16 km/h 79% 0 mm 0 W/m2
06:15 1 °C -2 °C 994.68 hPa S 10 km/h 16 km/h 79% 0 mm 0 W/m2
06:20 1 °C -2 °C 994.58 hPa S 8 km/h 14 km/h 78% 0 mm 0 W/m2
06:25 1 °C -2 °C 994.31 hPa S 13 km/h 16 km/h 78% 0 mm 0 W/m2
06:30 1 °C -2 °C 994.41 hPa S 11 km/h 16 km/h 79% 0 mm 0 W/m2
06:35 1 °C -2 °C 994.51 hPa SSW 10 km/h 18 km/h 80% 0 mm 0 W/m2
06:40 1 °C -2 °C 994.68 hPa SSW 8 km/h 19 km/h 80% 0 mm 0 W/m2
06:45 1 °C -2 °C 994.51 hPa SSW 11 km/h 18 km/h 80% 0 mm 0 W/m2
06:50 1 °C -2 °C 994.68 hPa SSW 11 km/h 23 km/h 80% 0 mm 0 W/m2
06:55 1 °C -2 °C 994.99 hPa SSW 10 km/h 14 km/h 80% 0 mm 0 W/m2
07:00 1 °C -2 °C 994.89 hPa SSW 10 km/h 13 km/h 81% 0 mm 0 W/m2
07:05 1 °C -2 °C 994.72 hPa SSW 10 km/h 11 km/h 81% 0 mm 0 W/m2
07:10 1 °C -2 °C 994.89 hPa SSW 11 km/h 21 km/h 80% 0 mm 0 W/m2
07:15 1 °C -2 °C 994.68 hPa S 11 km/h 16 km/h 80% 0 mm 0 W/m2
07:20 1 °C -2 °C 994.79 hPa S 8 km/h 14 km/h 81% 0 mm 0 W/m2
07:25 1 °C -2 °C 994.68 hPa SSW 8 km/h 18 km/h 81% 0 mm 0 W/m2
07:30 1 °C -2 °C 994.99 hPa S 8 km/h 16 km/h 81% 0 mm 0 W/m2
07:35 1 °C -2 °C 995.02 hPa S 5 km/h 13 km/h 81% 0 mm 0 W/m2
07:40 1 °C -2 °C 994.99 hPa SSW 5 km/h 10 km/h 81% 0 mm 0 W/m2
07:45 1 °C -2 °C 995.19 hPa SW 3 km/h 8 km/h 81% 0 mm 0 W/m2
07:50 1 °C -2 °C 995.09 hPa SW 10 km/h 16 km/h 81% 0 mm 0 W/m2
07:55 1 °C -2 °C 995.09 hPa SSW 13 km/h 19 km/h 81% 0 mm 0 W/m2
08:00 1 °C -1 °C 995.12 hPa SW 11 km/h 27 km/h 82% 0 mm 0 W/m2
08:05 2 °C -1 °C 995.09 hPa SW 10 km/h 27 km/h 82% 0 mm 0 W/m2
08:10 2 °C -1 °C 995.4 hPa SW 10 km/h 24 km/h 82% 0 mm 0 W/m2
08:15 2 °C 0 °C 995.4 hPa WSW 14 km/h 23 km/h 86% 0 mm 0 W/m2
08:20 2 °C 0 °C 995.4 hPa SW 14 km/h 24 km/h 85% 0 mm 0 W/m2
08:25 2 °C 0 °C 995.5 hPa SW 13 km/h 24 km/h 84% 0 mm 0 W/m2
08:30 2 °C 0 °C 995.43 hPa SW 14 km/h 32 km/h 84% 0 mm 0 W/m2
08:35 2 °C 0 °C 995.7 hPa S 13 km/h 34 km/h 84% 0.3 mm 0 W/m2
08:40 2 °C -1 °C 995.6 hPa SSW 13 km/h 24 km/h 83% 0 mm 0 W/m2
08:45 2 °C -1 °C 995.5 hPa W 16 km/h 32 km/h 79% 0 mm 0 W/m2
08:50 2 °C -1 °C 995.6 hPa W 10 km/h 32 km/h 79% 0 mm 0 W/m2
08:55 2 °C -1 °C 995.4 hPa SW 11 km/h 24 km/h 79% 0 mm 0 W/m2
09:00 2 °C -2 °C 995.29 hPa WSW 10 km/h 21 km/h 79% 0 mm 0 W/m2
09:05 2 °C -2 °C 995.29 hPa SW 13 km/h 19 km/h 79% 0 mm 0 W/m2
09:10 2 °C -2 °C 995.33 hPa SW 10 km/h 23 km/h 80% 0 mm 0 W/m2
09:15 2 °C -2 °C 995.6 hPa SW 13 km/h 23 km/h 80% 0 mm 0 W/m2
09:20 2 °C -1 °C 995.7 hPa SW 13 km/h 24 km/h 80% 0 mm 0 W/m2
09:25 2 °C -1 °C 995.6 hPa SW 10 km/h 26 km/h 80% 0 mm 0 W/m2
09:30 2 °C 0 °C 995.87 hPa WSW 11 km/h 24 km/h 84% 0 mm 0 W/m2
09:35 2 °C 0 °C 996 hPa WSW 14 km/h 23 km/h 84% 0 mm 0 W/m2
09:40 3 °C 0 °C 996 hPa WSW 14 km/h 21 km/h 84% 0 mm 0 W/m2
09:45 3 °C 0 °C 996.21 hPa SW 11 km/h 23 km/h 83% 0 mm 0 W/m2
09:50 3 °C 0 °C 996.21 hPa SW 14 km/h 21 km/h 82% 0 mm 0 W/m2
09:55 3 °C 0 °C 996.38 hPa SSW 14 km/h 21 km/h 81% 0 mm 0 W/m2
10:00 3 °C 0 °C 996.51 hPa SSW 10 km/h 21 km/h 81% 0 mm 0 W/m2
10:05 3 °C 0 °C 996.58 hPa S 11 km/h 19 km/h 80% 0 mm 0 W/m2
10:10 2 °C -1 °C 996.41 hPa S 11 km/h 19 km/h 81% 0 mm 0 W/m2
10:15 2 °C 0 °C 996.82 hPa SSW 13 km/h 14 km/h 82% 0 mm 0 W/m2
10:20 3 °C 0 °C 996.82 hPa SSW 11 km/h 18 km/h 83% 0 mm 0 W/m2
10:25 3 °C 0 °C 996.78 hPa SSW 11 km/h 21 km/h 83% 0 mm 0 W/m2
10:30 3 °C 0 °C 996.61 hPa SW 10 km/h 24 km/h 82% 0 mm 0 W/m2
10:35 3 °C 0 °C 996.89 hPa SW 14 km/h 24 km/h 81% 0 mm 0 W/m2
10:40 3 °C 0 °C 996.99 hPa SW 10 km/h 24 km/h 80% 0 mm 0 W/m2
10:45 3 °C 0 °C 996.89 hPa SW 13 km/h 21 km/h 79% 0 mm 0 W/m2
10:50 3 °C 0 °C 997.09 hPa WSW 10 km/h 21 km/h 78% 0 mm 0 W/m2
10:55 3 °C 0 °C 997.19 hPa SW 13 km/h 24 km/h 77% 0 mm 0 W/m2
11:00 4 °C 0 °C 997.29 hPa SSW 13 km/h 23 km/h 77% 0 mm 0 W/m2
11:05 4 °C 0 °C 996.89 hPa SSW 11 km/h 19 km/h 77% 0 mm 0 W/m2
11:10 4 °C 0 °C 997.49 hPa S 13 km/h 19 km/h 76% 0 mm 0 W/m2
11:15 4 °C 0 °C 997.39 hPa SW 13 km/h 23 km/h 75% 0 mm 0 W/m2
11:20 4 °C 0 °C 997.6 hPa W 16 km/h 26 km/h 75% 0 mm 0 W/m2
11:25 4 °C 0 °C 997.63 hPa W 14 km/h 32 km/h 74% 0 mm 0 W/m2
11:30 4 °C 0 °C 997.6 hPa WSW 13 km/h 32 km/h 74% 0 mm 0 W/m2
11:35 4 °C 0 °C 997.6 hPa WSW 13 km/h 29 km/h 73% 0 mm 0 W/m2
11:40 4 °C 0 °C 997.8 hPa W 13 km/h 34 km/h 74% 0 mm 0 W/m2
11:45 4 °C 0 °C 997.6 hPa W 14 km/h 34 km/h 74% 0 mm 0 W/m2
11:50 4 °C 0 °C 997.73 hPa WNW 14 km/h 32 km/h 74% 0 mm 0 W/m2
11:55 4 °C 0 °C 997.9 hPa W 13 km/h 24 km/h 74% 0 mm 0 W/m2
12:00 4 °C 0 °C 997.49 hPa WSW 13 km/h 32 km/h 74% 0 mm 0 W/m2
12:05 4 °C 0 °C 997.7 hPa WSW 14 km/h 24 km/h 74% 0.61 mm 0 W/m2
12:10 4 °C 0 °C 997.6 hPa W 11 km/h 27 km/h 73% 0 mm 0 W/m2
12:15 4 °C 0 °C 997.7 hPa NNW 13 km/h 24 km/h 73% 0 mm 0 W/m2
12:20 4 °C 0 °C 997.7 hPa WSW 11 km/h 26 km/h 73% 0 mm 0 W/m2
12:25 4 °C 0 °C 997.8 hPa SW 10 km/h 26 km/h 74% 0 mm 0 W/m2
12:30 4 °C 0 °C 997.8 hPa SW 11 km/h 24 km/h 74% 0 mm 0 W/m2
12:40 4 °C -5 °C hPa W 13 km/h 32 km/h 51% 2.11 mm 0 W/m2
12:45 4 °C 0 °C 998 hPa WNW 13 km/h 32 km/h 73% 0 mm 0 W/m2
12:50 5 °C 0 °C 998 hPa WNW 11 km/h 39 km/h 73% 0 mm 0 W/m2
12:55 5 °C 0 °C 998.21 hPa SW 11 km/h 39 km/h 72% 0 mm 0 W/m2
13:00 5 °C 0 °C 998.27 hPa S 14 km/h 26 km/h 72% 0.3 mm 0 W/m2
13:05 5 °C 0 °C 998.1 hPa E 14 km/h 26 km/h 72% 0 mm 0 W/m2
13:10 5 °C 0 °C 998.41 hPa NE 10 km/h 27 km/h 72% 0 mm 0 W/m2
13:15 5 °C 0 °C 998.31 hPa W 16 km/h 27 km/h 72% 0 mm 0 W/m2
13:20 5 °C 0 °C 998.51 hPa W 11 km/h 32 km/h 72% 0 mm 0 W/m2
13:25 5 °C 0 °C 998.51 hPa W 13 km/h 24 km/h 72% 0 mm 0 W/m2
13:30 5 °C 0 °C 998.78 hPa WSW 10 km/h 27 km/h 71% 0 mm 0 W/m2
13:35 5 °C 0 °C 998.51 hPa W 11 km/h 27 km/h 71% 0 mm 0 W/m2
13:40 5 °C 0 °C 998.78 hPa WNW 8 km/h 24 km/h 71% 0 mm 0 W/m2
13:45 5 °C 0 °C 998.78 hPa W 10 km/h 24 km/h 71% 0 mm 0 W/m2
13:50 5 °C 0 °C 998.82 hPa W 5 km/h 21 km/h 71% 0 mm 0 W/m2
13:55 5 °C 0 °C 998.92 hPa W 5 km/h 21 km/h 71% 0 mm 0 W/m2
14:00 5 °C 0 °C 998.98 hPa W 8 km/h 21 km/h 71% 0 mm 0 W/m2
14:05 5 °C 0 °C 998.98 hPa WNW 10 km/h 24 km/h 70% 0 mm 0 W/m2
14:10 5 °C 0 °C 999.19 hPa WNW 10 km/h 24 km/h 70% 0 mm 0 W/m2
14:15 5 °C 0 °C 999.22 hPa WNW 10 km/h 24 km/h 69% 0 mm 0 W/m2
14:20 5 °C 0 °C 999.39 hPa WNW 8 km/h 26 km/h 70% 0 mm 0 W/m2
14:25 5 °C 0 °C 999.29 hPa W 10 km/h 26 km/h 70% 0 mm 0 W/m2
14:30 5 °C 0 °C 999.22 hPa W 14 km/h 26 km/h 71% 0 mm 0 W/m2
14:35 4 °C 0 °C 999.49 hPa W 11 km/h 24 km/h 71% 0 mm 0 W/m2
14:40 5 °C 0 °C 999.42 hPa WSW 10 km/h 23 km/h 71% 0 mm 0 W/m2
14:45 5 °C 0 °C 999.39 hPa W 11 km/h 26 km/h 72% 0 mm 0 W/m2
14:50 5 °C 0 °C 999.59 hPa W 10 km/h 19 km/h 72% 0 mm 0 W/m2
14:55 5 °C 0 °C 999.49 hPa NNW 14 km/h 26 km/h 72% 0 mm 0 W/m2
15:00 5 °C 0 °C 999.49 hPa NW 8 km/h 26 km/h 71% 0 mm 0 W/m2
15:05 5 °C 0 °C 999.59 hPa W 5 km/h 21 km/h 71% 0 mm 0 W/m2
15:10 5 °C 0 °C 999.7 hPa SW 13 km/h 16 km/h 70% 0 mm 0 W/m2
15:15 5 °C 0 °C 999.9 hPa SSW 8 km/h 21 km/h 71% 0 mm 0 W/m2
15:20 5 °C 0 °C 999.8 hPa S 10 km/h 13 km/h 71% 0 mm 0 W/m2
15:25 5 °C 1 °C 1000.07 hPa WNW 11 km/h 19 km/h 72% 0 mm 0 W/m2
15:30 5 °C 0 °C 1000 hPa NW 8 km/h 21 km/h 71% 0 mm 0 W/m2
15:35 5 °C 0 °C 1000 hPa NW 5 km/h 14 km/h 71% 0 mm 0 W/m2
15:40 5 °C 0 °C 1000 hPa W 10 km/h 18 km/h 71% 0 mm 0 W/m2
15:45 5 °C 0 °C 999.93 hPa WSW 8 km/h 21 km/h 71% 0 mm 0 W/m2
15:50 5 °C 0 °C 1000 hPa W 11 km/h 21 km/h 71% 0 mm 0 W/m2
15:55 5 °C 0 °C 1000 hPa N 13 km/h 24 km/h 72% 0 mm 0 W/m2
16:00 5 °C 0 °C 1000.1 hPa WNW 10 km/h 24 km/h 73% 0 mm 0 W/m2
16:05 5 °C 0 °C 1000.31 hPa WNW 13 km/h 23 km/h 74% 0 mm 0 W/m2
16:10 4 °C 0 °C 1000.51 hPa WNW 10 km/h 26 km/h 75% 0 mm 0 W/m2
16:15 4 °C 0 °C 1000.61 hPa NW 10 km/h 24 km/h 75% 0.3 mm 0 W/m2
16:20 4 °C 0 °C 1000.81 hPa NNE 16 km/h 34 km/h 77% 0 mm 0 W/m2
16:25 3 °C 0 °C 1001.08 hPa N 13 km/h 27 km/h 78% 0 mm 0 W/m2
16:30 3 °C 0 °C 1001.08 hPa WNW 16 km/h 24 km/h 78% 0 mm 0 W/m2
16:35 3 °C 0 °C 1001.02 hPa NW 8 km/h 24 km/h 78% 0 mm 0 W/m2
16:40 3 °C 0 °C 1001.29 hPa N 11 km/h 24 km/h 80% 0 mm 0 W/m2
16:45 3 °C 0 °C 1001.12 hPa NNW 10 km/h 21 km/h 80% 0 mm 0 W/m2
16:50 3 °C 0 °C 1001.32 hPa NNW 10 km/h 27 km/h 81% 0 mm 0 W/m2
16:55 3 °C 0 °C 1001.59 hPa NNW 13 km/h 26 km/h 81% 0 mm 0 W/m2
17:00 3 °C 0 °C 1001.59 hPa NW 11 km/h 27 km/h 82% 0 mm 0 W/m2
17:05 3 °C 0 °C 1001.59 hPa NW 14 km/h 24 km/h 82% 0 mm 0 W/m2
17:10 3 °C 0 °C 1001.8 hPa NW 8 km/h 29 km/h 82% 0 mm 0 W/m2
17:15 3 °C 0 °C 1001.8 hPa NW 13 km/h 24 km/h 83% 0 mm 0 W/m2
17:20 3 °C 0 °C 1002 hPa NW 13 km/h 24 km/h 83% 0 mm 0 W/m2
17:25 3 °C 0 °C 1001.9 hPa NW 14 km/h 23 km/h 83% 0 mm 0 W/m2
17:40 3 °C 0 °C 1002.1 hPa WNW 10 km/h 16 km/h 83% 0 mm 0 W/m2
17:45 3 °C 0 °C 1002.4 hPa WNW 8 km/h 18 km/h 84% 0 mm 0 W/m2
17:50 3 °C 0 °C 1002.57 hPa WNW 10 km/h 23 km/h 84% 0 mm 0 W/m2
17:55 3 °C 0 °C 1002.71 hPa NW 10 km/h 24 km/h 83% 0 mm 0 W/m2
18:00 3 °C 0 °C 1002.71 hPa NW 13 km/h 24 km/h 83% 0 mm 0 W/m2
18:05 3 °C 0 °C 1002.71 hPa W 16 km/h 29 km/h 83% 0 mm 0 W/m2
18:10 3 °C 0 °C 1002.4 hPa W 10 km/h 24 km/h 83% 0 mm 0 W/m2
18:15 3 °C 0 °C 1002.71 hPa NW 10 km/h 21 km/h 83% 0 mm 0 W/m2
18:20 3 °C 0 °C 1002.68 hPa NW 8 km/h 24 km/h 83% 0 mm 0 W/m2
18:25 2 °C 0 °C 1002.61 hPa NNW 11 km/h 23 km/h 83% 0 mm 0 W/m2
18:30 2 °C 0 °C 1002.78 hPa NW 10 km/h 21 km/h 83% 0 mm 0 W/m2
18:35 2 °C 0 °C 1002.91 hPa NW 10 km/h 21 km/h 82% 0 mm 0 W/m2
18:40 2 °C 0 °C 1002.81 hPa NW 8 km/h 29 km/h 82% 0 mm 0 W/m2
18:45 2 °C 0 °C 1002.88 hPa WNW 13 km/h 23 km/h 82% 0 mm 0 W/m2
18:50 2 °C 0 °C 1002.81 hPa W 10 km/h 23 km/h 82% 0 mm 0 W/m2
18:55 2 °C 0 °C 1003.18 hPa W 13 km/h 24 km/h 82% 0 mm 0 W/m2
19:00 2 °C 0 °C 1003.12 hPa N 13 km/h 27 km/h 82% 0 mm 0 W/m2
19:05 2 °C 0 °C 1003.32 hPa N 5 km/h 27 km/h 82% 0 mm 0 W/m2
19:10 2 °C 0 °C 1003.49 hPa N 10 km/h 18 km/h 82% 0 mm 0 W/m2
19:15 2 °C -1 °C 1003.59 hPa N 11 km/h 27 km/h 82% 0 mm 0 W/m2
19:20 2 °C 0 °C 1003.59 hPa NW 10 km/h 23 km/h 82% 0 mm 0 W/m2
19:25 2 °C 0 °C 1003.59 hPa WSW 10 km/h 16 km/h 82% 0 mm 0 W/m2
19:30 2 °C 0 °C 1003.69 hPa SSW 10 km/h 23 km/h 82% 0 mm 0 W/m2
19:35 2 °C 0 °C 1003.89 hPa SSW 5 km/h 21 km/h 82% 0 mm 0 W/m2
19:40 2 °C 0 °C 1004.1 hPa W 8 km/h 18 km/h 82% 0 mm 0 W/m2
19:45 2 °C 0 °C 1004 hPa WNW 8 km/h 18 km/h 82% 0 mm 0 W/m2
19:50 2 °C 0 °C 1003.89 hPa WNW 10 km/h 19 km/h 82% 0 mm 0 W/m2
19:55 2 °C 0 °C 1004.1 hPa W 13 km/h 21 km/h 82% 0 mm 0 W/m2
20:00 2 °C 0 °C 1004.3 hPa WSW 10 km/h 21 km/h 82% 0 mm 0 W/m2
20:05 2 °C 0 °C 1004.37 hPa SW 11 km/h 24 km/h 82% 0 mm 0 W/m2
20:10 2 °C 0 °C 1004.13 hPa WSW 10 km/h 19 km/h 82% 0 mm 0 W/m2
20:15 2 °C 0 °C 1004.2 hPa WNW 13 km/h 19 km/h 82% 0 mm 0 W/m2
20:20 3 °C 0 °C 1004.1 hPa WNW 10 km/h 19 km/h 82% 0 mm 0 W/m2
20:25 3 °C 0 °C 1004.13 hPa WNW 8 km/h 21 km/h 82% 0 mm 0 W/m2
20:30 3 °C 0 °C 1004.03 hPa WNW 8 km/h 16 km/h 82% 0 mm 0 W/m2
20:35 3 °C 0 °C 1004.3 hPa WSW 8 km/h 21 km/h 81% 0 mm 0 W/m2
20:40 3 °C 0 °C 1004.4 hPa W 10 km/h 16 km/h 81% 0 mm 0 W/m2
20:45 3 °C 0 °C 1004.1 hPa W 10 km/h 19 km/h 81% 0 mm 0 W/m2
20:50 3 °C 0 °C 1004.3 hPa WSW 10 km/h 18 km/h 81% 0 mm 0 W/m2
Garrymore Weather Station, Geashill, Tullamore, Offaly, Ireland
Compliments of Weather Underground - 4 mb